Latest Coastal Weather Observations for Browse Island

IDD60701

Issued at 5:05 am CST Sunday 20 April 2014 (issued every 10 minutes, with the page automatically refreshed every 10 minutes)

About coastal observations | Map of coastal stations | Coastal observations for NT | Marine services | Other Formats
Station Details ID: 200784 Name: BROWSE ISLAND Lat: -14.11 Lon: 123.55 Height: 3.7 m
Data from the previous 72 hours. | See also: Recent months for locations in Northern Territory
Date/Time
CST
Temp

°C
Wind Pressure Rain
since 9am
mm
Weather Cloud Vis
km
Sea
Height
m
Swell
Dir
 
Speed
knots
Gust
knots
hPa Trend Height
m
Period
s
Dir
20/05:00am 29.7 NE 8 10 1009.4 - - - - - - - - -
20/04:30am 29.9 ENE 9 11 1009.3 - - - - - - - - -
20/04:00am 29.8 ENE 9 11 1009.5 - - - - - - - - -
20/03:30am 29.9 ENE 10 13 1009.4 - - - - - - - - -
20/03:00am 29.8 ENE 10 12 1009.6 - - - - - - - - -
20/02:30am 30.0 NE 9 11 1009.6 - - - - - - - - -
20/02:00am 29.9 ENE 11 13 1009.9 - - - - - - - - -
20/01:30am 29.9 ENE 10 12 1010.2 - - - - - - - - -
20/01:00am 29.8 ENE 9 12 1010.5 - - - - - - - - -
20/12:30am 29.8 ENE 10 13 1010.6 - - - - - - - - -
20/12:00am 29.8 ENE 11 14 1010.8 - - - - - - - - -
 
Date/Time
CST
Temp

°C
Wind Pressure Rain
since 9am
mm
Weather Cloud Vis
km
Sea
Height
m
Swell
Dir
 
Speed
knots
Gust
knots
hPa Trend Height
m
Period
s
Dir
19/11:30pm 29.8 ENE 11 13 1010.8 - - - - - - - - -
19/11:00pm 29.8 ENE 11 12 1010.8 - - - - - - - - -
19/10:30pm 29.8 NE 11 13 1010.7 - - - - - - - - -
19/10:00pm 29.7 ENE 9 12 1011.0 - - - - - - - - -
19/09:30pm 29.9 NE 9 10 1010.7 - - - - - - - - -
19/09:00pm 29.8 ENE 8 11 1010.5 - - - - - - - - -
19/08:30pm 29.9 ENE 8 10 1010.0 - - - - - - - - -
19/08:00pm 29.9 ENE 9 11 1009.6 - - - - - - - - -
19/07:30pm 29.9 ENE 9 11 1009.1 - - - - - - - - -
19/07:00pm 30.0 ENE 10 12 1009.0 - - - - - - - - -
19/06:30pm 30.1 ENE 10 13 1008.7 - - - - - - - - -
19/06:00pm 30.6 E 12 15 1008.6 - - - - - - - - -
19/05:30pm 30.5 E 12 14 1008.4 - - - - - - - - -
19/05:00pm 31.1 E 11 14 1008.5 - - - - - - - - -
19/04:30pm 31.4 E 11 14 1008.4 - - - - - - - - -
19/04:00pm 31.7 E 11 14 1008.6 - - - - - - - - -
19/03:30pm 31.7 E 12 16 1008.5 - - - - - - - - -
19/03:00pm 32.1 E 13 17 1008.6 - - - - - - - - -
19/02:30pm 31.8 E 14 18 1008.7 - - - - - - - - -
19/02:00pm 32.1 E 13 16 1009.3 - - - - - - - - -
19/01:30pm 32.0 E 15 18 1009.5 - - - - - - - - -
19/01:00pm 32.2 ESE 13 17 1009.8 - - - - - - - - -
19/12:30pm 31.2 ESE 13 18 1010.1 - - - - - - - - -
19/12:00pm 31.4 ESE 14 17 1010.8 - - - - - - - - -
19/11:30am 30.8 SE 13 16 1011.1 - - - - - - - - -
19/11:00am 31.5 SE 13 16 1011.4 - - - - - - - - -
19/10:30am 30.7 SE 11 14 1011.3 - - - - - - - - -
19/10:00am 30.0 SE 10 13 1011.5 - - - - - - - - -
19/09:30am 30.0 SE 9 11 1011.4 - - - - - - - - -
19/09:00am 29.6 SSE 9 11 1011.4 - - - - - - - - -
19/08:30am 29.4 SSE 9 11 1011.1 - - - - - - - - -
19/08:00am 29.4 SSE 8 9 1010.9 - - - - - - - - -
19/07:30am 29.2 S 8 9 1010.6 - - - - - - - - -
19/07:00am 29.3 SSE 8 10 1010.6 - - - - - - - - -
19/06:30am 29.3 SSE 7 9 1010.2 - - - - - - - - -
19/06:00am 29.3 SE 7 9 1010.2 - - - - - - - - -
19/05:30am 29.3 ESE 6 7 1010.0 - - - - - - - - -
19/05:00am 29.4 ESE 5 7 1010.3 - - - - - - - - -
19/04:30am 29.4 ESE 5 6 1010.5 - - - - - - - - -
19/04:00am 29.4 E 6 7 1010.7 - - - - - - - - -
19/03:30am 29.5 E 5 7 1010.5 - - - - - - - - -
19/03:00am 29.4 E 5 6 1010.8 - - - - - - - - -
19/02:30am 29.7 ESE 6 7 1010.9 - - - - - - - - -
19/02:00am 29.8 ESE 5 6 1011.4 - - - - - - - - -
19/01:30am 29.7 E 5 6 1011.5 - - - - - - - - -
19/01:00am 29.9 E 5 6 1011.8 - - - - - - - - -
19/12:30am 29.8 E 5 6 1011.9 - - - - - - - - -
19/12:00am 30.0 E 5 6 1012.2 - - - - - - - - -
 
Date/Time
CST
Temp

°C
Wind Pressure Rain
since 9am
mm
Weather Cloud Vis
km
Sea
Height
m
Swell
Dir
 
Speed
knots
Gust
knots
hPa Trend Height
m
Period
s
Dir
18/11:30pm 30.0 ENE 6 7 1012.2 - - - - - - - - -
18/11:00pm 29.9 NE 6 7 1012.4 - - - - - - - - -
18/10:30pm 30.2 NE 6 8 1012.4 - - - - - - - - -
18/10:00pm 29.9 ENE 6 7 1012.3 - - - - - - - - -
18/09:30pm 30.1 ENE 5 7 1012.0 - - - - - - - - -
18/09:00pm 30.2 ENE 5 6 1011.5 - - - - - - - - -
18/08:30pm 29.9 ENE 7 8 1011.0 - - - - - - - - -
18/08:00pm 30.0 ENE 9 11 1010.7 - - - - - - - - -
18/07:30pm 30.0 E 9 11 1010.3 - - - - - - - - -
18/07:00pm 30.2 E 9 10 1010.1 - - - - - - - - -
18/06:30pm 30.6 E 9 12 1009.8 - - - - - - - - -
18/06:00pm 30.8 E 11 14 1009.7 - - - - - - - - -
18/05:30pm 31.1 E 11 13 1009.2 - - - - - - - - -
18/05:00pm 31.6 E 10 13 1009.2 - - - - - - - - -
18/04:30pm 32.0 E 11 15 1009.2 - - - - - - - - -
18/04:00pm 32.2 E 12 14 1009.4 - - - - - - - - -
18/03:30pm 31.8 E 12 15 1009.4 - - - - - - - - -
18/03:00pm 31.9 ESE 11 14 1009.7 - - - - - - - - -
18/02:30pm 32.1 ESE 10 13 1009.8 - - - - - - - - -
18/02:00pm 32.4 SE 11 13 1010.1 - - - - - - - - -
18/01:30pm 31.4 SE 12 16 1010.3 - - - - - - - - -
18/01:00pm 31.3 SE 11 14 1010.9 - - - - - - - - -
18/12:30pm 31.8 SE 11 14 1011.1 - - - - - - - - -
18/12:00pm 31.3 SE 12 14 1011.5 - - - - - - - - -
18/11:30am 31.9 SE 10 13 1011.6 - - - - - - - - -
18/11:00am 30.8 SE 11 13 1012.2 - - - - - - - - -
18/10:30am 30.5 SE 10 12 1012.0 - - - - - - - - -
18/10:00am 30.4 SE 9 11 1011.9 - - - - - - - - -
18/09:30am 29.9 SSE 8 9 1011.6 - - - - - - - - -
18/09:00am 29.7 SSE 8 9 1011.6 - - - - - - - - -
18/08:30am 29.5 SSE 8 10 1011.3 - - - - - - - - -
18/08:00am 29.3 SSE 8 9 1011.1 - - - - - - - - -
18/07:30am 29.1 SSE 8 10 1010.8 - - - - - - - - -
18/07:00am 29.3 SSE 7 9 1010.7 - - - - - - - - -
18/06:30am 29.2 SSE 6 8 1010.5 - - - - - - - - -
18/06:00am 29.3 SE 7 9 1010.5 - - - - - - - - -
18/05:30am 29.3 ESE 8 11 1010.3 - - - - - - - - -
18/05:00am 29.3 ESE 8 9 1010.5 - - - - - - - - -
18/04:30am 29.5 ESE 6 8 1010.6 - - - - - - - - -
18/04:00am 29.1 E 7 8 1010.7 - - - - - - - - -
18/03:30am 29.5 ESE 6 7 1010.9 - - - - - - - - -
18/03:00am 29.6 ESE 6 7 1011.0 - - - - - - - - -
18/02:30am 29.4 ESE 6 7 1011.1 - - - - - - - - -
18/02:00am 29.5 E 7 8 1011.4 - - - - - - - - -
18/01:30am 29.5 E 6 8 1011.6 - - - - - - - - -
18/01:00am 29.8 ENE 7 10 1012.1 - - - - - - - - -
18/12:30am 30.0 ENE 7 9 1012.0 - - - - - - - - -
18/12:00am 29.9 NE 6 7 1012.1 - - - - - - - - -
 
Date/Time
CST
Temp

°C
Wind Pressure Rain
since 9am
mm
Weather Cloud Vis
km
Sea
Height
m
Swell
Dir
 
Speed
knots
Gust
knots
hPa Trend Height
m
Period
s
Dir
17/11:30pm 29.9 NE 7 8 1012.0 - - - - - - - - -
17/11:00pm 30.0 NE 7 9 1012.3 - - - - - - - - -
17/10:30pm 30.1 ENE 8 9 1012.2 - - - - - - - - -
17/10:00pm 29.9 ENE 7 9 1012.3 - - - - - - - - -
17/09:30pm 29.8 ENE 8 8 1012.0 - - - - - - - - -
17/09:00pm 29.8 E 7 9 1011.8 - - - - - - - - -
17/08:30pm 29.8 E 9 11 1011.5 - - - - - - - - -
17/08:00pm 30.0 E 7 8 1011.2 - - - - - - - - -
17/07:30pm 30.0 ENE 8 10 1011.0 - - - - - - - - -
17/07:00pm 30.4 E 9 12 1010.9 - - - - - - - - -
17/06:30pm 30.6 E 9 12 1010.4 - - - - - - - - -
17/06:00pm 31.0 E 9 11 1010.0 - - - - - - - - -
17/05:30pm 30.9 E 9 11 1009.4 - - - - - - - - -
17/05:00pm 31.1 ESE 9 11 1009.3 - - - - - - - - -
17/04:30pm 31.6 ESE 10 13 1009.0 - - - - - - - - -
17/04:00pm 31.7 ESE 10 14 1009.2 - - - - - - - - -
17/03:30pm 32.0 ESE 10 13 1009.3 - - - - - - - - -
17/03:00pm 31.2 ESE 12 16 1009.8 - - - - - - - - -
17/02:30pm 31.9 ESE 12 15 1010.0 - - - - - - - - -
17/02:00pm 31.2 ESE 13 15 1010.2 - - - - - - - - -
17/01:30pm 31.2 ESE 15 18 1010.3 - - - - - - - - -
17/01:00pm 31.3 SE 14 17 1010.6 - - - - - - - - -
17/12:30pm 31.1 SE 13 16 1010.9 - - - - - - - - -
17/12:00pm 31.5 SE 13 15 1011.1 - - - - - - - - -
17/11:30am 31.3 SE 13 17 1011.4 - - - - - - - - -
17/11:00am 30.9 SE 13 17 1011.7 - - - - - - - - -
17/10:30am 31.0 SE 12 16 1011.8 - - - - - - - - -
17/10:00am 30.9 ESE 13 18 1011.8 - - - - - - - - -
17/09:30am 30.8 ESE 13 17 1011.6 - - - - - - - - -
17/09:00am 30.6 ESE 13 17 1011.5 - - - - - - - - -
17/08:30am 30.4 E 12 15 1011.1 - - - - - - - - -
17/08:00am 30.2 E 11 14 1010.9 - - - - - - - - -
17/07:30am 29.8 E 11 14 1010.4 - - - - - - - - -
17/07:00am 30.0 E 12 14 1010.2 - - - - - - - - -

Other Formats:

Comma delimited format used in spreadsheet applications
http://www.bom.gov.au/fwo/IDD60701/IDD60701.94103.axf

JavaScript Object Notation format (JSON) in row-major order
http://www.bom.gov.au/fwo/IDD60701/IDD60701.94103.json